Location: Amon Carter Post Office
(32.8281°N, 97.0484°W)
Time: 21:31:13
(UTC+00:00)

SKYMED 2 - Visible Passes

Search period start: 27 June 2022 00:00
Search period end: 07 July 2022 00:00
Orbit: 621 x 623 km, 97.9° (Epoch: 27 June)

Date Brightness Start Highest point End Pass type
(mag) Time Alt. Az. Time Alt. Az. Time Alt. Az.
28 Jun 7.0 10:41:20 10° E 10:43:25 13° ENE 10:45:30 10° NE visible
03 Jul 7.2 10:36:04 10° E 10:37:25 11° ENE 10:38:45 10° NE visible
04 Jul 6.7 10:52:17 10° ESE 10:55:14 18° ENE 10:58:11 10° NNE visible
